FLOCK 4P-7 (44816 NORAD) Tracking and Keplerian Element Data

This shows tracking and keplerian element data for the satellite.

Feedback or suggestion? Click here.




ElementValue
Catalog44816
NameFLOCK 4P-7
Epoch Orbit1937
Epoch Day93.74204988
Epoch Year2020
RAAN155.2363
Inclination97.5042
Eccentricity0.0012464
Argument of Perigee148.6169
Mean Anonmoly211.5812
Mean Motion15.19830194
Decay Rate7.71E-06
L11 44816U 19081N 20093.74204988 .00000771 00000-0 39167-4 0 9993
L22 44816 97.5042 155.2363 0012464 148.6169 211.5812 15.19830194 19370

Live tracking and technical data element details for FLOCK 4P-7 (NORAD 44816). FLOCK 4P-7 can be tracked NOW for your location showing map with azimuth and elevation plus other details from your city location.

Track the satellite on the map from your city or location and see movement details for azimuth, elevation, latitude, longitude, range, height, and movement on the map or in text.







IsCatalogInMostPopularTable: catalog: 44816, numindb: 52
Update: records affected: 1



GetName: 44816 FLOCK 4P-7

Hit Count: updated at: Fri, 10 Apr 2020 19:33:29 GMT